Location: Chircca
(13.7944°S, 72.0608°W)
Time: 06:08:45
(UTC+00:00)

Cosmos 1437 - Pass Details

Date: 14 July 2020
Orbit: 369 x 375 km, 81.2° (Epoch: 07 August)

Event Time Altitude Azimuth Distance (km) Brightness Sun altitude
Rises 10:13:34 0° 1° (N) 2,202 6.7 -14.3°
Reaches altitude 10° 10:15:33 10° 5° (N) 1,360 5.7 -13.8°
Maximum altitude 10:18:27 57° 85° (E) 444 3.2 -13.2°
Drops below altitude 10° 10:21:23 10° 165° (SSE) 1,377 5.3 -12.5°
Sets 10:23:23 0° 169° (SSE) 2,233 6.4 -12.0°
